N1LTP Weather Reports


time (UTC)temp
F
wind
direction
speed
knots
gust
knots
rain 1hr
in
rain 24hr
in
rain mn
in
humidity
%
barometer
mb
20260506103035 56 87 0.9 3.5 0.00 0.07 0.00 90 1010.9
20260506101533 56 188 0.9 4.3 0.00 0.07 0.00 90 1010.9
20260506100032 56 331 0.0 3.5 0.00 0.07 0.00 90 1010.7
20260506094529 56 101 0.0 3.5 0.00 0.07 0.00 89 1010.6
20260506093028 56 217 0.0 7.0 0.00 0.07 0.00 89 1010.6
20260506091527 56 153 0.0 3.5 0.00 0.07 0.00 89 1010.7
20260506090026 56 171 0.0 3.5 0.00 0.07 0.00 89 1010.6
20260506084525 57 76 0.9 6.1 0.00 0.07 0.00 88 1010.8
20260506083024 57 74 0.0 2.6 0.00 0.07 0.00 88 1010.8
20260506081523 57 152 0.9 5.2 0.00 0.07 0.00 88 1010.9
20260506073021 57 235 0.0 5.2 0.00 0.07 0.00 86 1010.8
20260506071520 57 227 0.0 2.6 0.00 0.07 0.00 85 1010.7
20260506061517 58 147 0.0 3.5 0.00 0.07 0.00 83 1010.6
20260506044515 57 110 0.9 4.3 0.00 0.07 0.00 82 1011.2
20260506043008 57 80 0.9 4.3 0.00 0.07 0.00 81 1011.2
20260506041505 58 159 0.9 3.5 0.00 0.07 0.00 80 1011.2
20260506040003 58 110 1.7 5.2 0.00 0.07 0.00 79 1011.1
20260506034501 58 138 0.9 4.3 0.00 0.07 0.07 78 1011.0
20260506033001 58 57 0.9 3.5 0.00 0.07 0.07 78 1011.0
20260506031604 58 127 1.7 4.3 0.00 0.07 0.07 77 1010.9
20260506030116 58 155 0.9 4.3 0.00 0.07 0.07 76 1011.0
20260506024600 58 159 0.9 4.3 0.00 0.07 0.07 76 1010.9
20260506023059 58 233 0.9 7.8 0.00 0.07 0.07 75 1010.9
20260506021603 58 224 0.9 3.5 0.00 0.07 0.07 75 1010.9
20260506020058 59 134 0.9 5.2 0.00 0.07 0.07 75 1010.9
20260506014607 59 224 0.9 4.3 0.00 0.07 0.07 75 1010.8
20260506013056 59 110 0.9 3.5 0.00 0.07 0.07 75 1010.7
20260506011556 59 154 0.9 7.8 0.00 0.07 0.07 75 1010.6
20260506010104 58 129 0.9 3.5 0.00 0.07 0.07 76 1010.5
20260506004555 58 154 1.7 6.1 0.00 0.07 0.07 76 1010.5
20260506003054 58 123 0.0 2.6 0.00 0.07 0.07 76 1010.3
20260506001558 59 146 0.9 5.2 0.00 0.07 0.07 75 1010.0
20260506000058 59 238 0.9 4.3 0.00 0.07 0.07 74 1009.6
20260505234552 60 115 0.0 3.5 0.00 0.07 0.07 73 1009.7
20260505233103 60 148 0.9 5.2 0.00 0.07 0.07 73 1009.2
20260505231552 60 124 0.9 3.5 0.00 0.07 0.07 72 1009.0
20260505230052 61 61 1.7 7.0 0.00 0.07 0.07 72 1008.6
20260505224650 61 175 0.0 3.5 0.00 0.07 0.07 72 1008.6
20260505223051 62 184 0.0 4.3 0.00 0.07 0.07 70 1008.6
20260505220048 64 11 1.7 4.3 0.00 0.07 0.07 67 1008.5
20260505214547 65 158 2.6 5.2 0.00 0.07 0.07 65 1008.3
20260505213048 66 163 0.9 7.0 0.00 0.07 0.07 64 1008.2
20260505211547 67 163 1.7 5.2 0.00 0.07 0.07 63 1008.2
20260505210045 67 213 0.9 8.7 0.00 0.07 0.07 62 1007.9
20260505204544 68 138 0.9 5.2 0.00 0.07 0.07 61 1008.1
20260505203049 69 144 1.7 9.6 0.00 0.07 0.07 59 1008.2
20260505201546 70 167 2.6 5.2 0.00 0.07 0.07 58 1008.2
20260505200041 70 163 1.7 7.8 0.00 0.07 0.07 57 1008.1
20260505194547 71 130 1.7 8.7 0.00 1.23 0.07 56 1008.2
20260505193100 72 242 1.7 7.8 0.00 1.23 0.07 56 1008.4
20260505191541 72 161 1.7 6.1 0.00 1.23 0.07 55 1008.2
20260505190041 73 171 2.6 7.0 0.00 1.23 0.07 55 1008.3
20260505184537 74 160 1.7 9.6 0.00 2.06 0.07 52 1008.3
20260505183035 74 117 1.7 7.0 0.00 2.06 0.07 53 1008.3
20260505181534 75 159 2.6 7.0 0.00 2.06 0.07 51 1008.6
20260505180037 75 149 3.5 7.0 0.00 2.06 0.07 52 1008.7
20260505174528 74 336 2.6 4.3 0.00 2.06 0.07 53 1008.9
20260505173026 74 292 1.7 8.7 0.00 2.06 0.07 55 1009.2
20260505171525 73 143 1.7 6.1 0.00 2.06 0.07 57 1009.1
20260505170024 72 121 1.7 4.3 0.00 2.06 0.07 58 1009.2
20260505164523 72 182 3.5 7.8 0.00 2.06 0.07 57 1009.5
20260505163019 74 271 0.9 6.1 0.00 2.06 0.07 59 1009.7
20260505161519 73 95 0.9 7.0 0.00 2.06 0.07 59 1009.7
20260505153018 72 209 0.9 4.3 0.00 2.06 0.07 60 1009.6
20260505151512 72 247 0.9 4.3 0.00 2.06 0.07 60 1009.6
20260505124536 59 131 0.9 4.3 0.00 1.99 0.00 79 1010.6
20260505123044 58 153 0.9 5.2 0.00 1.99 0.00 81 1010.7
20260505121529 56 321 0.9 4.3 0.00 1.99 0.00 83 1010.5
20260505120035 55 308 0.9 3.5 0.00 1.99 0.00 86 1010.4
20260505114519 53 155 0.0 4.3 0.00 1.99 0.00 90 1010.6
20260505113015 52 81 0.0 2.6 0.00 1.99 0.00 94 1010.5
20260505111523 50 93 0.0 1.7 0.00 1.99 0.00 96 1010.3